Regional Weather Roundup
Issued by NWS

Home | Current Version | Previous Version | Text Only | Print | Product List | Glossary Off
Versions: 1 2 3 4 5 6 7 8 9 10 11 12 13 14 15 16 17 18 19 20 21 22 23 24 25 26 27 28 29 30 31 32 33 34 35 36 37 38 39 40 41 42 43 44 45 46 47 48 49 50

000
ASUS45 KBOI 280710
RWRID
WEATHER ROUNDUP FOR IDAHO
NATIONAL WEATHER SERVICE BOISE ID
1200 AM MST WED JAN 28 2015

NOTE: "FAIR" INDICATES FEW OR NO CLOUDS BELOW 12000 FEET
WITH NO SIGNIFICANT WEATHER AND/OR OBSTRUCTIONS TO VISIBILITY

IDZ012-014-280800-
SOUTHWEST IDAHO


CITY           SKY/WX    TMP DP  RH WIND       PRES   REMARKS
BOISE          CLOUDY    36  35  96 NW6       30.20R FOG     WCI  31
CALDWELL       MOCLDY    36  30  80 CALM      30.23R
MOUNTAIN HOME  FOG       36  36 100 W3        30.18R VSB 1
$$

IDZ016-017-280800-
SOUTHCENTRAL IDAHO


CITY           SKY/WX    TMP DP  RH WIND       PRES   REMARKS
BURLEY         LGT RAIN  41  39  93 SW6       30.15R
JEROME         LGT RAIN  39  38  96 SW9       30.16R VSB 1/2 WCI  33
TWIN FALLS     LGT RAIN  42  37  82 SW10      30.16R
$$

IDZ019>023-280800-
SOUTHEAST IDAHO


CITY           SKY/WX    TMP DP  RH WIND       PRES   REMARKS
IDAHO FALLS    CLOUDY    37  34  89 SW5       30.13R WCI  33
POCATELLO      CLOUDY    40  37  89 W8        30.15R WCI  34
REXBURG        CLOUDY    38  34  85 CALM      30.12S
$$

IDZ006-010-011-018-031-032-280800-
CENTRAL IDAHO MOUNTAINS


CITY           SKY/WX    TMP DP  RH WIND       PRES   REMARKS
MCCALL         CLOUDY    33  31  92 CALM      30.14R
HAILEY         DRIZZLE   34  34 100 NW5       30.14S WCI  30
STANLEY          N/A     34  32  92 CALM      30.15R
SALMON         CLOUDY   N/A N/A N/A CALM      30.15R
CHALLIS        LGT RAIN  33  31  92 CALM      30.13R
$$

IDZ002-004-006-007-026-280800-
NORTHERN IDAHO


CITY           SKY/WX    TMP DP  RH WIND       PRES   REMARKS
LEWISTON       MOCLDY    39  37  92 SE5       30.16R
LOWELL           N/A     35  33  92 NW5       30.20R WCI  31
COEUR D`ALENE  CLOUDY    37  34  87 W6        30.13R WCI  33
MULLAN PASS    CLEAR     31  26  82 VRB5G18   30.05R WCI  26
$$



USA.gov is the U.S. government's official web portal to all federal, state and local government web resources and services.